[[{"header":{"parameterUnit":"m.s-1","parameterCategory":2,"la1":30.2991,"la2":30.254,"lo1":-89.0895,"lo2":-89.0444,"dy":0.0017,"dx":0.0017,"nx":28,"ny":28,"refTime":"2023-04-27T21:00:00:Z","depth":"0","parameterNumber":2,"parameterNumberName":"U-component_of_CURRENTS"},"data":[0,0,0,0,0,0,0,0,0,0,0,0,0,0,0,0,0,0,0,0,0,0,0,0,0,0,0,0,0,0,0,0,0,0,0,0,0,0,0,0,0,0,0,0,0,0,0,0,0,0,0,0,0,0,0,0,0,0,-0.3595,-0.3596,0,-0.3587,-0.3587,-0.3586,-0.3539,-0.3538,-0.3538,-0.3537,-0.3493,-0.3492,-0.3491,0,0,0,0,0,0,0,0,0,0,0,0,0,-0.3483,-0.3485,-0.3595,-0.3596,-0.3596,-0.3587,-0.3587,-0.3586,-0.3539,-0.3538,-0.3538,-0.3537,-0.3493,-0.3492,-0.3491,0,0,0,0,0,0,0,0,0,0,0,0,0,-0.3503,-0.3486,-0.3595,-0.3577,-0.3576,-0.3588,-0.3587,-0.3586,-0.3539,-0.3538,-0.3538,-0.3537,-0.3493,-0.3492,-0.3491,-0.3501,0,0,-0.3488,-0.3488,0,0,0,0,0,0,0,0,-0.3502,-0.3506,-0.3579,-0.3578,-0.3577,-0.3569,-0.3531,-0.3558,-0.3539,-0.3546,-0.3537,-0.3536,-0.352,-0.3517,-0.3508,-0.3499,-0.3497,-0.3488,-0.3487,-0.3487,-0.3487,0,0,0,0,0,0,0,-0.35,-0.3506,-0.3585,-0.358,-0.3579,-0.3539,-0.3541,-0.3535,-0.3532,-0.3545,-0.3544,-0.3553,-0.3518,-0.3509,-0.3506,-0.3496,-0.3488,-0.3487,-0.3486,-0.3486,-0.3495,-0.3496,0,0,0,0,0,0,-0.3521,-0.3505,-0.3586,-0.3586,-0.3544,-0.3543,-0.3545,-0.3567,-0.3532,-0.3529,-0.3554,-0.3551,-0.3511,-0.3508,-0.3505,-0.3534,-0.3487,-0.3486,-0.3485,-0.3494,-0.3495,-0.3496,0,0,0,0,0,0,-0.3519,-0.3529,-0.3586,-0.3549,-0.3555,-0.3547,-0.3571,-0.3567,-0.3564,-0.3541,-0.3535,-0.3557,-0.351,-0.3506,-0.3506,-0.3531,-0.3485,-0.3484,-0.3493,-0.3494,-0.3495,-0.358,0,0,0,0,0,0,-0.3516,-0.3528,-0.3545,-0.3552,-0.3558,-0.3616,-0.3573,-0.3568,-0.3574,-0.357,-0.3541,-0.3535,-0.3509,-0.3507,-0.3505,-0.3529,-0.3484,-0.3492,-0.3494,-0.3495,-0.3576,-0.3584,-0.3591,0,0,0,0,0,-0.3512,-0.3558,-0.3546,-0.3556,-0.3584,-0.3618,-0.3618,-0.3603,-0.3576,-0.3591,-0.356,-0.3537,-0.3515,-0.3508,-0.3504,-0.3529,-0.3491,-0.3493,-0.3495,-0.3573,-0.3582,-0.359,0,0,0,0,0,0,-0.3523,-0.3558,-0.3545,-0.3599,-0.3613,-0.3613,-0.3632,-0.3612,-0.3599,-0.3596,-0.3549,-0.3543,-0.3554,-0.3529,-0.3521,-0.3534,-0.3499,-0.35,-0.3559,-0.3568,-0.3575,-0.3587,-0.3483,0,0,0,0,0,-0.3533,-0.3572,-0.3591,-0.3632,-0.3645,-0.3634,-0.3642,-0.3639,-0.3632,-0.3625,-0.3599,-0.3573,-0.356,-0.3553,-0.3543,-0.3551,-0.3533,-0.3563,-0.3571,-0.3577,-0.3583,-0.3563,-0.357,-0.3502,-0.3502,-0.3502,0,0,-0.3545,-0.3573,-0.3591,-0.3635,-0.3641,-0.3682,-0.3636,-0.3673,-0.3692,-0.3625,-0.3637,-0.3605,-0.3569,-0.3579,-0.3581,-0.356,-0.3593,-0.3579,-0.3585,-0.3588,-0.3566,-0.3573,-0.3578,-0.3504,-0.3503,-0.3503,0,0,-0.3615,-0.3618,-0.3681,-0.3699,-0.3735,-0.3728,-0.3743,-0.3751,-0.374,-0.3753,-0.3703,-0.3681,-0.3669,-0.3638,-0.3621,-0.3661,-0.3636,-0.3664,-0.3707,-0.3689,-0.3694,-0.3698,-0.3713,-0.3718,-0.3663,-0.3663,-0.3663,0,-0.362,-0.3713,-0.3702,-0.3768,-0.3792,-0.3754,-0.3819,-0.3805,-0.3806,-0.3798,-0.3776,-0.3729,-0.3696,-0.3685,-0.3694,-0.3679,-0.3677,-0.3679,-0.3699,-0.3703,-0.3706,-0.3719,-0.3723,-0.3667,-0.3667,-0.3666,-0.3666,0,-0.3744,-0.3807,-0.3848,-0.3909,-0.3923,-0.398,-0.3964,-0.3967,-0.3939,-0.3914,-0.39,-0.3841,-0.3809,-0.3793,-0.3756,-0.3759,-0.3756,-0.3716,-0.3679,-0.3718,-0.373,-0.3733,-0.3674,-0.3672,-0.3671,-0.367,0,0,-0.3771,-0.3911,-0.3923,-0.3973,-0.4008,-0.4034,-0.406,-0.407,-0.4083,-0.4039,-0.4047,-0.3986,-0.3931,-0.3907,-0.3849,-0.3819,-0.384,-0.3784,-0.3781,-0.3804,-0.3832,-0.3781,-0.3779,-0.3806,-0.3806,-0.3806,-0.3843,0,-0.3867,-0.4044,-0.4066,-0.4172,-0.4246,-0.421,-0.4231,-0.4217,-0.4193,-0.4185,-0.4088,-0.4072,-0.398,-0.3968,-0.3923,-0.3859,-0.3848,-0.3836,-0.3786,-0.3785,-0.3738,-0.378,-0.348,-0.3482,-0.3845,-0.3846,-0.3846,0,-0.3967,-0.4078,-0.4239,-0.4318,-0.434,-0.4372,-0.4389,-0.44,-0.4357,-0.4336,-0.4279,-0.4213,-0.4145,-0.4071,-0.3974,-0.3975,-0.392,-0.3864,-0.3864,-0.3785,-0.3738,-0.3495,-0.3473,-0.3352,-0.385,-0.385,-0.385,0,-0.4009,-0.4168,-0.4306,-0.4339,-0.4429,-0.4456,-0.4463,-0.4444,-0.4432,-0.4419,-0.441,-0.4332,-0.4276,-0.4194,-0.4057,-0.4031,-0.3967,-0.3916,-0.3825,-0.3822,-0.3539,-0.3511,-0.3389,-0.3874,-0.3874,-0.3874,-0.3874,0,-0.4089,-0.4185,-0.4338,-0.441,-0.4497,-0.4516,-0.4559,-0.4559,-0.454,-0.4447,-0.4471,-0.4405,-0.43,-0.4229,-0.4123,-0.3983,-0.4017,-0.3848,-0.3823,-0.3564,-0.3539,-0.3398,-0.3403,-0.3875,-0.3875,-0.3875,-0.3875,0,-0.4097,-0.4222,-0.4371,-0.4509,-0.4527,-0.4573,-0.458,-0.4497,-0.4594,-0.4482,-0.4467,-0.4462,-0.4366,-0.4291,-0.4165,-0.4051,-0.3833,-0.3893,-0.362,-0.3563,-0.3357,-0.338,-0.3316,-0.3249,-0.3805,-0.3803,-0.3802,0,-0.4121,-0.4219,-0.4416,-0.4356,-0.44,-0.4455,-0.4348,-0.4475,-0.4347,-0.4438,-0.4284,-0.4343,-0.4153,-0.4085,-0.3959,-0.3832,-0.3778,-0.3538,-0.3421,-0.3321,-0.3327,-0.3363,-0.3314,-0.3091,-0.3085,-0.3079,-0.3075,0,-0.406,-0.4153,-0.4187,-0.4145,-0.4068,-0.4053,-0.3953,-0.3925,-0.393,-0.391,-0.3763,-0.3717,-0.3769,-0.3525,-0.3554,-0.3446,-0.338,-0.3426,-0.3343,-0.2793,-0.2795,-0.2722,-0.3149,-0.3026,-0.3031,-0.3034,-0.3037,-0.3039,-0.3864,-0.3858,-0.3805,-0.3726,-0.3621,-0.3423,-0.3313,-0.32,-0.3068,-0.2916,-0.3123,-0.3004,-0.3023,-0.3012,-0.3009,-0.2879,-0.3055,-0.2685,-0.2737,-0.28,-0.2669,-0.304,-0.2881,-0.2885,-0.2889,-0.2892,-0.2894,0,-0.343,-0.3378,-0.3283,-0.3122,-0.2826,-0.297,-0.2775,-0.2611,-0.2318,-0.2334,-0.2243,-0.2187,-0.2065,-0.2244,-0.2203,-0.2125,-0.2122,-0.2103,-0.2003,-0.2002,-0.228,-0.2175,-0.1825,-0.1825,-0.1825,-0.1825,-0.1825,-0.1825,-0.3118,-0.2844,-0.2831,-0.2275,-0.2157,-0.1791,-0.1645,-0.1578,-0.1565,-0.1403,-0.1433,-0.1545,-0.1698,-0.1717,-0.1635,-0.1603,-0.1606,-0.155,-0.174,-0.1814,-0.1869,-0.1922,-0.1818,-0.1399,-0.1399,-0.1275,-0.1273,-0.1272]},{"header":{"parameterUnit":"m.s-1","parameterCategory":2,"la1":30.2991,"la2":30.254,"lo1":-89.0895,"lo2":-89.0444,"dy":0.0017,"dx":0.0017,"nx":28,"ny":28,"refTime":"2023-04-27T21:00:00:Z","depth":"0","parameterNumber":3,"parameterNumberName":"V-component_of_CURRENTS"},"data":[0,0,0,0,0,0,0,0,0,0,0,0,0,0,0,0,0,0,0,0,0,0,0,0,0,0,0,0,0,0,0,0,0,0,0,0,0,0,0,0,0,0,0,0,0,0,0,0,0,0,0,0,0,0,0,0,0,0,0.0074,0.0075,0,0.018,0.0181,0.0182,0.0209,0.0208,0.0208,0.0207,0.0252,0.0254,0.0256,0,0,0,0,0,0,0,0,0,0,0,0,0,-0.0046,-0.0044,0.0074,0.0075,0.0076,0.018,0.0181,0.0183,0.0209,0.0208,0.0208,0.0207,0.0252,0.0254,0.0256,0,0,0,0,0,0,0,0,0,0,0,0,0,0.0027,-0.0044,0.0073,0.0103,0.0107,0.018,0.0181,0.0183,0.0209,0.0208,0.0208,0.0207,0.0251,0.0254,0.0256,0.029,0,0,0.0264,0.0266,0,0,0,0,0,0,0,0,0.0023,0.0031,0.0097,0.0101,0.0105,0.0181,0.0156,0.0216,0.021,0.0169,0.0207,0.0206,0.0224,0.0229,0.0251,0.0292,0.0294,0.0265,0.0266,0.0267,0.0268,0,0,0,0,0,0,0,0.0017,0.0027,0.0115,0.0099,0.0104,0.0132,0.014,0.0168,0.0198,0.0173,0.0175,0.0189,0.0226,0.0248,0.0252,0.0295,0.0265,0.0267,0.0269,0.027,0.0376,0.0377,0,0,0,0,0,0,0.0004,0.0022,0.0111,0.0118,0.0062,0.0134,0.0144,0.0157,0.02,0.0206,0.019,0.019,0.0244,0.0249,0.0253,0.0315,0.0267,0.027,0.0271,0.0374,0.0376,0.0377,0,0,0,0,0,0,0.0001,0.0011,0.0107,0.0073,0.0087,0.0137,0.0152,0.016,0.0182,0.0213,0.0218,0.0203,0.0243,0.0249,0.0287,0.0316,0.0271,0.0273,0.0373,0.0375,0.0377,0.0425,0,0,0,0,0,0,-0.0002,0.001,0.001,0.0072,0.0089,0.0153,0.0153,0.0162,0.0192,0.0194,0.0227,0.023,0.0243,0.0283,0.029,0.0318,0.0275,0.0371,0.0374,0.0376,0.0422,0.0429,0.0434,0,0,0,0,0,-0.0007,-0.0003,0.0009,0.002,0.0089,0.0154,0.0165,0.0197,0.0194,0.0211,0.0235,0.0229,0.0302,0.0287,0.0294,0.0324,0.037,0.0373,0.0376,0.0419,0.0427,0.0434,0,0,0,0,0,0,-0.006,0.0003,0.0017,0.0038,0.0093,0.0159,0.0175,0.0199,0.0234,0.0231,0.025,0.0257,0.03,0.0305,0.0287,0.036,0.0334,0.0338,0.0364,0.0372,0.0378,0.0372,0.0278,0,0,0,0,0,-0.007,-0.0051,0.002,0.0034,0.0063,0.0119,0.0146,0.0175,0.0217,0.0232,0.0259,0.0285,0.0319,0.0337,0.0364,0.0408,0.0409,0.043,0.0436,0.0441,0.0441,0.0457,0.0465,0.0387,0.0387,0.0386,0,0,-0.0093,-0.0052,-0.0045,0.0024,0.0066,0.0123,0.0133,0.0181,0.0227,0.0231,0.0287,0.0307,0.0334,0.0386,0.0405,0.0393,0.047,0.0444,0.0449,0.0446,0.0461,0.0469,0.0475,0.0388,0.0388,0.0388,0,0,-0.0112,-0.0083,-0.0064,-0.0003,0.007,0.0115,0.0129,0.0204,0.0234,0.0295,0.0309,0.0349,0.0398,0.0434,0.0455,0.0509,0.0499,0.0511,0.0543,0.056,0.0566,0.0571,0.0607,0.0615,0.0517,0.0517,0.0517,0,-0.0146,-0.01,-0.0049,0.0007,0.0054,0.0112,0.0161,0.0214,0.0289,0.0315,0.0313,0.04,0.0426,0.0493,0.0517,0.0525,0.0529,0.0515,0.0567,0.0572,0.0577,0.0612,0.062,0.052,0.052,0.0519,0.0519,0,-0.0132,-0.0084,-0.0062,0.0026,0.0084,0.0134,0.0224,0.0271,0.0307,0.0356,0.0422,0.0466,0.051,0.0535,0.0547,0.0602,0.0593,0.057,0.0547,0.0588,0.0622,0.063,0.0524,0.0523,0.0522,0.0521,0,0,-0.0257,-0.0088,-0.0086,-0.0033,0.0101,0.0139,0.0231,0.0316,0.0351,0.0429,0.0475,0.0559,0.0568,0.0592,0.0615,0.0644,0.07,0.0622,0.0622,0.0654,0.0745,0.0827,0.0844,0.0674,0.0675,0.0676,0.0764,0,-0.0271,-0.0177,-0.0078,0.0005,0.006,0.017,0.0242,0.0329,0.0394,0.0454,0.0523,0.0566,0.0596,0.0604,0.0649,0.068,0.0718,0.0679,0.0702,0.0704,0.0769,0.0855,0.0808,0.089,0.0772,0.0773,0.0774,0,-0.0313,-0.0232,-0.0154,-0.0005,0.0025,0.0082,0.0186,0.0264,0.0383,0.0431,0.0509,0.0555,0.0644,0.0632,0.0737,0.0704,0.073,0.0754,0.0757,0.0819,0.0801,0.0825,0.0908,0.0954,0.0785,0.0784,0.0784,0,-0.047,-0.0303,-0.0252,-0.0194,-0.0014,0.0025,0.0105,0.0232,0.0292,0.04,0.0434,0.0553,0.0593,0.0658,0.0768,0.0729,0.0872,0.0816,0.0922,0.0928,0.0889,0.089,0.1014,0.0869,0.0869,0.0869,0.0868,0,-0.0548,-0.0516,-0.0324,-0.03,-0.0233,-0.0086,-0.0028,0.0072,0.0195,0.0281,0.0389,0.0471,0.0591,0.0709,0.0778,0.0921,0.0889,0.0956,0.0966,0.091,0.0912,0.0948,0.096,0.0872,0.0871,0.0871,0.087,0,-0.0747,-0.0619,-0.0547,-0.0365,-0.0307,-0.0278,-0.01,-0.0021,0.0064,0.0178,0.0209,0.0401,0.0577,0.0729,0.0865,0.0936,0.1096,0.1096,0.1051,0.1055,0.1179,0.1194,0.1353,0.1408,0.1207,0.121,0.1212,0,-0.0849,-0.0832,-0.0636,-0.0543,-0.0458,-0.0365,-0.025,-0.0112,0.001,0.016,0.0248,0.0409,0.0608,0.0875,0.1024,0.12,0.1218,0.124,0.1164,0.1223,0.1244,0.126,0.1294,0.1129,0.113,0.1131,0.1132,0,-0.1014,-0.0946,-0.0844,-0.0634,-0.0502,-0.0345,-0.0172,-0.011,0.0085,0.0184,0.0391,0.0519,0.074,0.0959,0.1181,0.1259,0.128,0.127,0.1319,0.1211,0.1243,0.1286,0.105,0.1142,0.1141,0.1141,0.114,0.114,-0.113,-0.1077,-0.0867,-0.0652,-0.0475,-0.022,-0.0045,0.0138,0.0333,0.058,0.0568,0.0762,0.0833,0.1153,0.128,0.1406,0.14,0.1384,0.1403,0.142,0.1468,0.1297,0.1412,0.1412,0.1413,0.1413,0.1413,0,-0.1169,-0.1022,-0.0847,-0.0523,-0.0243,-0.0152,0.0142,0.0348,0.0654,0.0715,0.0898,0.095,0.1144,0.1227,0.1382,0.1493,0.1501,0.1538,0.1494,0.1527,0.1346,0.1336,0.1455,0.1455,0.1455,0.1455,0.1455,0.1455,-0.1171,-0.0977,-0.0811,-0.0295,-0.005,0.0384,0.0603,0.0814,0.0934,0.1104,0.1141,0.1144,0.1129,0.1364,0.1538,0.1563,0.1653,0.1661,0.1764,0.1557,0.1542,0.1527,0.1522,0.1678,0.1678,0.1891,0.1893,0.1895]}],[{"header":{"parameterUnit":"m.s-1","parameterCategory":2,"la1":30.2991,"la2":30.254,"lo1":-89.0895,"lo2":-89.0444,"dy":0.0017,"dx":0.0017,"nx":28,"ny":28,"refTime":"2023-04-27T21:00:00:Z","depth":"2","parameterNumber":2,"parameterNumberName":"U-component_of_CURRENTS"},"data":[0,0,0,0,0,0,0,0,0,0,0,0,0,0,0,0,0,0,0,0,0,0,0,0,0,0,0,0,0,0,0,0,0,0,0,0,0,0,0,0,0,0,0,0,0,0,0,0,0,0,0,0,0,0,0,0,0,0,-0.1912,-0.1911,0,-0.188,-0.1879,-0.1879,-0.1848,-0.1848,-0.1848,-0.1848,-0.1764,-0.1762,-0.176,0,0,0,0,0,0,0,0,0,0,0,0,0,-0.1906,-0.1906,-0.1912,-0.1911,-0.1911,-0.188,-0.1879,-0.1879,-0.1848,-0.1848,-0.1848,-0.1848,-0.1765,-0.1762,-0.176,0,0,0,0,0,0,0,0,0,0,0,0,0,-0.1892,-0.1906,-0.1912,-0.1895,-0.1893,-0.188,-0.1879,-0.1878,-0.1848,-0.1848,-0.1848,-0.1847,-0.1766,-0.1763,-0.176,-0.1744,0,0,-0.175,-0.1749,0,0,0,0,0,0,0,0,-0.1893,-0.1892,-0.1897,-0.1896,-0.1894,-0.187,-0.1847,-0.1832,-0.1848,-0.1862,-0.1848,-0.1847,-0.1797,-0.1791,-0.1782,-0.174,-0.1736,-0.175,-0.1748,-0.1746,-0.1745,0,0,0,0,0,0,0,-0.1894,-0.1893,-0.1896,-0.1897,-0.1895,-0.1875,-0.1873,-0.1844,-0.1827,-0.1861,-0.1859,-0.186,-0.1795,-0.1785,-0.178,-0.1735,-0.175,-0.1747,-0.1745,-0.1744,-0.1674,-0.1674,0,0,0,0,0,0,-0.1906,-0.1894,-0.1897,-0.1895,-0.1896,-0.1876,-0.1873,-0.1876,-0.1829,-0.1823,-0.1861,-0.1859,-0.1791,-0.1784,-0.1777,-0.177,-0.1746,-0.1743,-0.1742,-0.1674,-0.1674,-0.1674,0,0,0,0,0,0,-0.1906,-0.1907,-0.1898,-0.1896,-0.1894,-0.1877,-0.1879,-0.1875,-0.1875,-0.183,-0.1822,-0.1866,-0.179,-0.1781,-0.1761,-0.1766,-0.1742,-0.1739,-0.1674,-0.1674,-0.1674,-0.1747,0,0,0,0,0,0,-0.1906,-0.1907,-0.1908,-0.1897,-0.1895,-0.1904,-0.188,-0.1875,-0.1877,-0.1875,-0.1832,-0.1824,-0.179,-0.1766,-0.1758,-0.1761,-0.1737,-0.1674,-0.1674,-0.1674,-0.1745,-0.175,-0.1754,0,0,0,0,0,-0.1906,-0.1918,-0.1908,-0.1908,-0.1898,-0.1905,-0.1902,-0.1886,-0.1878,-0.1883,-0.1853,-0.1825,-0.176,-0.1764,-0.1754,-0.1757,-0.1674,-0.1674,-0.1674,-0.1743,-0.1749,-0.1754,0,0,0,0,0,0,-0.1915,-0.1916,-0.1905,-0.1915,-0.1914,-0.1901,-0.1906,-0.1896,-0.1877,-0.1878,-0.183,-0.1819,-0.1796,-0.1769,-0.1774,-0.1735,-0.171,-0.1709,-0.1766,-0.1771,-0.1776,-0.182,-0.1734,0,0,0,0,0,-0.1918,-0.1924,-0.1923,-0.1928,-0.1934,-0.1921,-0.192,-0.1918,-0.1903,-0.1895,-0.1866,-0.1829,-0.1787,-0.1776,-0.1737,-0.1726,-0.1724,-0.1719,-0.1724,-0.1728,-0.1756,-0.1718,-0.1723,-0.1674,-0.1674,-0.1674,0,0,-0.192,-0.1922,-0.1923,-0.1929,-0.1927,-0.1952,-0.192,-0.1936,-0.1952,-0.1888,-0.1895,-0.1842,-0.1785,-0.1764,-0.1753,-0.1747,-0.1751,-0.1728,-0.1733,-0.1759,-0.1719,-0.1724,-0.1728,-0.1674,-0.1674,-0.1674,0,0,-0.1951,-0.1935,-0.1964,-0.1972,-0.1986,-0.1978,-0.1989,-0.199,-0.1984,-0.1983,-0.193,-0.1885,-0.1846,-0.1798,-0.1768,-0.1776,-0.1768,-0.1766,-0.1836,-0.1798,-0.1803,-0.1806,-0.1861,-0.1868,-0.1778,-0.1778,-0.1778,0,-0.1953,-0.1995,-0.1972,-0.2011,-0.2027,-0.1998,-0.2044,-0.2032,-0.2024,-0.2024,-0.1999,-0.192,-0.1858,-0.1823,-0.1824,-0.1786,-0.1805,-0.182,-0.1807,-0.181,-0.1812,-0.1866,-0.1874,-0.1782,-0.1781,-0.1781,-0.178,0,-0.2016,-0.2052,-0.2073,-0.2108,-0.2114,-0.215,-0.2141,-0.2146,-0.2129,-0.2113,-0.2082,-0.1996,-0.196,-0.1914,-0.1873,-0.1858,-0.1883,-0.1809,-0.1799,-0.1822,-0.1878,-0.1884,-0.1787,-0.1785,-0.1784,-0.1783,0,0,-0.2013,-0.2105,-0.2113,-0.2153,-0.2178,-0.2189,-0.2216,-0.223,-0.2252,-0.2209,-0.2232,-0.2121,-0.2086,-0.205,-0.1978,-0.1937,-0.1963,-0.1904,-0.19,-0.1974,-0.1969,-0.1856,-0.1853,-0.1893,-0.1893,-0.1893,-0.2021,0,-0.2074,-0.2189,-0.2204,-0.2282,-0.2336,-0.2321,-0.2343,-0.2341,-0.233,-0.2341,-0.2249,-0.2227,-0.2135,-0.2119,-0.2068,-0.1986,-0.1977,-0.1941,-0.1924,-0.1925,-0.1831,-0.1853,-0.1666,-0.175,-0.2028,-0.2029,-0.2029,0,-0.2128,-0.2203,-0.232,-0.2388,-0.2406,-0.244,-0.2471,-0.2487,-0.2484,-0.2473,-0.2447,-0.2393,-0.2349,-0.2245,-0.2166,-0.216,-0.2092,-0.2018,-0.2019,-0.1892,-0.182,-0.1759,-0.1752,-0.204,-0.2039,-0.2038,-0.2038,0,-0.2148,-0.2265,-0.2366,-0.2394,-0.247,-0.2507,-0.2529,-0.2538,-0.2524,-0.2572,-0.2555,-0.2536,-0.2484,-0.2415,-0.2278,-0.2243,-0.2193,-0.2114,-0.1962,-0.1958,-0.1783,-0.176,-0.2057,-0.2056,-0.2056,-0.2056,-0.2055,0,-0.2201,-0.2273,-0.2393,-0.2448,-0.2521,-0.2558,-0.2604,-0.2629,-0.2633,-0.2574,-0.2622,-0.2538,-0.2509,-0.2458,-0.2367,-0.2208,-0.227,-0.2002,-0.1965,-0.1807,-0.1786,-0.2003,-0.1995,-0.2061,-0.206,-0.2059,-0.2058,0,-0.2193,-0.2298,-0.2396,-0.2509,-0.254,-0.2583,-0.2608,-0.26,-0.2646,-0.2579,-0.2586,-0.2561,-0.2492,-0.2482,-0.2378,-0.2271,-0.2164,-0.2084,-0.1956,-0.1897,-0.1959,-0.1954,-0.1969,-0.1966,-0.1963,-0.1961,-0.1959,0,-0.221,-0.2269,-0.2402,-0.2428,-0.2482,-0.2544,-0.2538,-0.2596,-0.2547,-0.25,-0.2424,-0.2418,-0.2265,-0.2197,-0.2082,-0.2016,-0.2078,-0.1822,-0.1662,-0.1979,-0.1943,-0.1942,-0.194,-0.151,-0.1505,-0.15,-0.1496,0,-0.2158,-0.2204,-0.2247,-0.2333,-0.2364,-0.2389,-0.2393,-0.2365,-0.2352,-0.2291,-0.2131,-0.2034,-0.1938,-0.1753,-0.1745,-0.1658,-0.1836,-0.172,-0.2074,-0.1529,-0.1544,-0.1509,-0.1523,-0.1456,-0.146,-0.1463,-0.1465,-0.1467,-0.2028,-0.2032,-0.2068,-0.214,-0.2184,-0.2175,-0.2144,-0.2096,-0.2003,-0.1805,-0.1798,-0.1564,-0.1532,-0.1324,-0.1322,-0.1392,-0.1446,-0.1408,-0.1423,-0.1442,-0.1333,-0.1338,-0.12,-0.1202,-0.1204,-0.1206,-0.1208,0,-0.1773,-0.1797,-0.1851,-0.1902,-0.19,-0.2,-0.1959,-0.1856,-0.1686,-0.1478,-0.1297,-0.1041,-0.0912,-0.0982,-0.0953,-0.0962,-0.0976,-0.1007,-0.1012,-0.1047,-0.1081,-0.0956,-0.0722,-0.0721,-0.0721,-0.0721,0,0,-0.1612,-0.1531,-0.1601,-0.1575,-0.1641,-0.1568,-0.1535,-0.1401,-0.1248,-0.0932,-0.0744,-0.063,-0.0729,-0.0616,-0.0675,-0.0693,-0.0858,-0.0679,-0.1043,-0.1067,-0.1099,-0.1267,-0.1108,0,0,0,0,0]},{"header":{"parameterUnit":"m.s-1","parameterCategory":2,"la1":30.2991,"la2":30.254,"lo1":-89.0895,"lo2":-89.0444,"dy":0.0017,"dx":0.0017,"nx":28,"ny":28,"refTime":"2023-04-27T21:00:00:Z","depth":"2","parameterNumber":3,"parameterNumberName":"V-component_of_CURRENTS"},"data":[0,0,0,0,0,0,0,0,0,0,0,0,0,0,0,0,0,0,0,0,0,0,0,0,0,0,0,0,0,0,0,0,0,0,0,0,0,0,0,0,0,0,0,0,0,0,0,0,0,0,0,0,0,0,0,0,0,0,0.0143,0.0144,0,0.0287,0.0289,0.0291,0.0327,0.0326,0.0325,0.0323,0.0436,0.044,0.0444,0,0,0,0,0,0,0,0,0,0,0,0,0,0.0032,0.0033,0.0142,0.0144,0.0146,0.0287,0.0289,0.0291,0.0327,0.0326,0.0324,0.0323,0.0435,0.0439,0.0444,0,0,0,0,0,0,0,0,0,0,0,0,0,0.0121,0.0033,0.0142,0.0178,0.0183,0.0286,0.0289,0.0292,0.0328,0.0326,0.0324,0.0322,0.0433,0.0439,0.0445,0.052,0,0,0.0464,0.0467,0,0,0,0,0,0,0,0,0.0116,0.0125,0.0171,0.0176,0.0181,0.0284,0.0291,0.0365,0.0328,0.0276,0.0323,0.0321,0.0382,0.0392,0.0428,0.0525,0.053,0.0465,0.0468,0.0471,0.0473,0,0,0,0,0,0,0,0.0109,0.012,0.0203,0.0173,0.0179,0.0233,0.0243,0.0307,0.0339,0.028,0.0282,0.0294,0.0384,0.0422,0.0431,0.0531,0.0464,0.047,0.0474,0.0476,0.0643,0.0644,0,0,0,0,0,0,0.0081,0.0114,0.0198,0.0207,0.014,0.0236,0.0247,0.0256,0.0339,0.0349,0.0296,0.0295,0.0412,0.0424,0.0435,0.0468,0.0471,0.0477,0.048,0.0643,0.0644,0.0644,0,0,0,0,0,0,0.0078,0.0087,0.0192,0.0161,0.0178,0.0238,0.0249,0.0259,0.0269,0.0351,0.036,0.029,0.0411,0.0426,0.0479,0.0474,0.0479,0.0485,0.0642,0.0643,0.0644,0.0572,0,0,0,0,0,0,0.0074,0.0085,0.0072,0.0159,0.0178,0.0235,0.0251,0.0263,0.0279,0.028,0.035,0.036,0.0411,0.0469,0.0485,0.0483,0.049,0.0641,0.0642,0.0644,0.0574,0.0571,0.0568,0,0,0,0,0,0.0069,0.0059,0.007,0.008,0.0162,0.0235,0.0251,0.029,0.028,0.029,0.0337,0.0356,0.0489,0.0476,0.0494,0.0493,0.064,0.0642,0.0644,0.0575,0.0571,0.0568,0,0,0,0,0,0,0.0005,0.0065,0.0078,0.0085,0.0145,0.0239,0.0243,0.0274,0.0323,0.0309,0.0376,0.0392,0.0437,0.048,0.0463,0.0547,0.0564,0.057,0.0506,0.0504,0.0501,0.0518,0.0495,0,0,0,0,0,-0.0016,-0.0015,0.0066,0.0067,0.0089,0.016,0.0187,0.0221,0.028,0.0297,0.0348,0.0404,0.0468,0.0492,0.0556,0.0604,0.0667,0.0614,0.0611,0.0609,0.0636,0.0686,0.069,0.065,0.065,0.065,0,0,-0.0043,-0.0011,-0.0012,0.0051,0.0093,0.0146,0.0172,0.0205,0.0249,0.0304,0.0353,0.0398,0.048,0.0536,0.0558,0.0563,0.0662,0.0611,0.0608,0.0638,0.0688,0.0692,0.0696,0.0651,0.0651,0.0651,0,0,-0.0084,-0.0069,-0.0074,-0.0016,0.0043,0.0104,0.0104,0.0187,0.0214,0.0279,0.0326,0.0372,0.0461,0.0526,0.0569,0.0594,0.0648,0.0594,0.0592,0.0638,0.0642,0.0646,0.0762,0.0776,0.0588,0.0588,0.0588,0,-0.0126,-0.0103,-0.0062,-0.0029,0.0016,0.0079,0.0115,0.017,0.0259,0.0302,0.0278,0.043,0.0468,0.0573,0.0567,0.0588,0.064,0.0589,0.0633,0.0638,0.0643,0.0761,0.0778,0.0584,0.0585,0.0585,0.0585,0,-0.0147,-0.0117,-0.0113,-0.0048,0.0006,0.0044,0.0136,0.0181,0.021,0.0282,0.0366,0.0426,0.0521,0.0522,0.0549,0.0612,0.0649,0.0621,0.0633,0.0642,0.0767,0.0786,0.058,0.0581,0.0582,0.0583,0,0,-0.0273,-0.0153,-0.0155,-0.0102,0.0002,0.0052,0.0123,0.0231,0.029,0.0348,0.0436,0.0505,0.0532,0.0584,0.0613,0.0639,0.0705,0.0629,0.0633,0.0734,0.0856,0.0815,0.0833,0.0659,0.0661,0.0662,0.0939,0,-0.0305,-0.0244,-0.0172,-0.0092,-0.004,0.0065,0.0139,0.0243,0.0321,0.0422,0.0494,0.0575,0.0559,0.0581,0.0612,0.0692,0.0746,0.0637,0.0844,0.0853,0.0804,0.085,0.0585,0.08,0.0958,0.0962,0.0964,0,-0.0364,-0.0294,-0.0236,-0.0077,-0.005,0.0007,0.0149,0.0229,0.0393,0.0448,0.0548,0.0617,0.072,0.0658,0.0825,0.0748,0.0804,0.0848,0.0859,0.0862,0.0845,0.0814,0.083,0.0996,0.0994,0.0991,0.0989,0,-0.0481,-0.0344,-0.0298,-0.0245,-0.0065,-0.002,0.0068,0.0225,0.0308,0.0463,0.0527,0.0676,0.074,0.0826,0.0939,0.0872,0.1122,0.1047,0.1092,0.1094,0.0937,0.0919,0.1157,0.1156,0.1156,0.1155,0.1154,0,-0.0551,-0.0511,-0.0344,-0.0312,-0.022,-0.0088,0.001,0.0118,0.0279,0.0394,0.0516,0.0614,0.0763,0.0928,0.1003,0.1144,0.119,0.1132,0.1155,0.0908,0.0886,0.1095,0.1084,0.1165,0.1163,0.1161,0.1159,0,-0.0708,-0.0604,-0.0516,-0.0335,-0.0278,-0.0223,-0.0033,0.0055,0.0187,0.0339,0.0382,0.0598,0.0787,0.0988,0.118,0.1222,0.1359,0.1393,0.1139,0.1123,0.1295,0.1277,0.1471,0.1472,0.1473,0.1473,0.1474,0,-0.0787,-0.0766,-0.0574,-0.0499,-0.0424,-0.0304,-0.0209,-0.0027,0.008,0.0323,0.0393,0.0619,0.0695,0.1022,0.1126,0.1308,0.1436,0.1277,0.1071,0.1321,0.1324,0.1306,0.1288,0.0871,0.0867,0.0863,0.086,0,-0.0902,-0.0848,-0.0753,-0.0615,-0.0505,-0.0365,-0.022,-0.0155,0.0072,0.0156,0.0305,0.0354,0.0588,0.0646,0.0922,0.0999,0.1217,0.1205,0.1549,0.0807,0.0769,0.0767,0.0767,0.0827,0.083,0.0832,0.0834,0.0836,-0.0992,-0.095,-0.0818,-0.0684,-0.0555,-0.0423,-0.034,-0.022,-0.0115,-0.0002,0.011,0.0132,0.0273,0.0441,0.065,0.0902,0.0915,0.0973,0.0978,0.0989,0.0844,0.0805,0.085,0.0853,0.0856,0.0859,0.0861,0,-0.1046,-0.0968,-0.0873,-0.0691,-0.0576,-0.0475,-0.0316,-0.0268,-0.0209,-0.0177,-0.0165,-0.0122,-0.0104,0.0203,0.0393,0.053,0.0474,0.0695,0.0562,0.0587,0.0612,0.0446,0.0349,0.035,0.0351,0.0352,0,0,-0.106,-0.0984,-0.0911,-0.0718,-0.0599,-0.0441,-0.0358,-0.0356,-0.0321,-0.0366,-0.0368,-0.0461,-0.018,-0.0077,0.0088,0.025,0.041,0.0268,0.062,0.0455,0.048,0.067,0.043,0,0,0,0,0]}],[{"header":{"parameterUnit":"m.s-1","parameterCategory":2,"la1":30.2991,"la2":30.254,"lo1":-89.0895,"lo2":-89.0444,"dy":0.0017,"dx":0.0017,"nx":28,"ny":28,"refTime":"2023-04-27T21:00:00:Z","depth":"4","parameterNumber":2,"parameterNumberName":"U-component_of_CURRENTS"},"data":[0,0,0,0,0,0,0,0,0,0,0,0,0,0,0,0,0,0,0,0,0,0,0,0,0,0,0,0,0,0,0,0,0,0,0,0,0,0,0,0,0,0,0,0,0,0,0,0,0,0,0,0,0,0,0,0,0,0,-0.0449,-0.0449,0,-0.0547,-0.0549,-0.055,-0.0638,-0.0639,-0.064,-0.064,-0.0774,-0.0777,-0.078,0,0,0,0,0,0,0,0,0,0,0,0,0,-0.042,-0.042,-0.0448,-0.0449,-0.045,-0.0547,-0.0549,-0.0551,-0.0638,-0.0639,-0.064,-0.0641,-0.0773,-0.0777,-0.078,0,0,0,0,0,0,0,0,0,0,0,0,0,-0.047,-0.0419,-0.0448,-0.0502,-0.0508,-0.0547,-0.0549,-0.0551,-0.0638,-0.0639,-0.064,-0.0641,-0.0772,-0.0776,-0.0781,-0.0789,0,0,-0.0794,-0.0796,0,0,0,0,0,0,0,0,-0.0467,-0.0472,-0.0494,-0.0499,-0.0505,-0.0578,-0.0588,-0.0631,-0.0638,-0.0593,-0.064,-0.0641,-0.0708,-0.0718,-0.074,-0.0795,-0.0801,-0.0795,-0.0797,-0.0799,-0.08,0,0,0,0,0,0,0,-0.0464,-0.0469,-0.0492,-0.0494,-0.0501,-0.055,-0.0558,-0.0597,-0.0648,-0.0597,-0.0603,-0.0607,-0.0712,-0.0735,-0.0744,-0.0803,-0.0794,-0.0798,-0.0801,-0.0803,-0.0955,-0.0956,0,0,0,0,0,0,-0.0437,-0.0464,-0.0489,-0.0494,-0.0483,-0.0549,-0.0559,-0.0557,-0.0647,-0.066,-0.0606,-0.061,-0.0727,-0.0738,-0.0749,-0.0856,-0.0799,-0.0803,-0.0806,-0.0954,-0.0955,-0.0957,0,0,0,0,0,0,-0.0436,-0.0438,-0.0485,-0.0479,-0.0488,-0.0548,-0.0546,-0.0558,-0.0619,-0.0652,-0.0667,-0.0657,-0.0729,-0.0742,-0.0816,-0.0858,-0.0805,-0.0809,-0.0952,-0.0954,-0.0956,-0.1011,0,0,0,0,0,0,-0.0435,-0.0437,-0.0448,-0.0477,-0.0487,-0.0526,-0.0545,-0.0559,-0.0615,-0.0624,-0.07,-0.0712,-0.073,-0.0809,-0.082,-0.0863,-0.0813,-0.095,-0.0953,-0.0955,-0.1008,-0.1015,-0.1021,0,0,0,0,0,-0.0433,-0.0441,-0.0447,-0.0451,-0.0492,-0.0526,-0.0538,-0.0586,-0.0617,-0.0646,-0.0702,-0.0711,-0.0833,-0.0814,-0.0827,-0.0872,-0.0949,-0.0952,-0.0955,-0.1005,-0.1014,-0.1021,0,0,0,0,0,0,-0.0433,-0.0451,-0.0459,-0.0471,-0.0502,-0.054,-0.057,-0.0606,-0.0675,-0.069,-0.0735,-0.075,-0.0824,-0.0839,-0.0818,-0.0921,-0.0891,-0.0896,-0.0924,-0.0932,-0.0939,-0.0958,-0.0817,0,0,0,0,0,-0.0433,-0.0445,-0.0467,-0.0478,-0.0493,-0.0539,-0.0567,-0.0597,-0.0648,-0.0682,-0.0736,-0.079,-0.084,-0.0881,-0.0915,-0.0982,-0.0969,-0.1016,-0.1023,-0.1028,-0.1051,-0.108,-0.1091,-0.0967,-0.0967,-0.0967,0,0,-0.0432,-0.0444,-0.0451,-0.048,-0.0507,-0.0537,-0.0561,-0.0603,-0.0639,-0.0683,-0.0766,-0.0815,-0.086,-0.0929,-0.0965,-0.0956,-0.1045,-0.1032,-0.1037,-0.1057,-0.1084,-0.1096,-0.1107,-0.0969,-0.0969,-0.0968,0,0,-0.0429,-0.0448,-0.0458,-0.0488,-0.0526,-0.0555,-0.0574,-0.063,-0.0669,-0.0753,-0.0783,-0.0863,-0.0953,-0.0989,-0.102,-0.1086,-0.1072,-0.11,-0.1166,-0.1194,-0.1204,-0.1214,-0.1158,-0.1162,-0.1113,-0.1114,-0.1114,0,-0.0427,-0.0439,-0.0469,-0.0491,-0.0516,-0.0566,-0.059,-0.0635,-0.0715,-0.0741,-0.0788,-0.094,-0.0982,-0.1062,-0.1103,-0.1103,-0.1095,-0.1132,-0.1203,-0.1212,-0.1221,-0.1163,-0.1167,-0.1117,-0.1116,-0.1116,-0.1116,0,-0.043,-0.0453,-0.0463,-0.0504,-0.0542,-0.0569,-0.062,-0.0667,-0.0737,-0.0787,-0.0899,-0.0989,-0.1081,-0.1112,-0.1149,-0.1233,-0.1193,-0.1198,-0.1182,-0.1237,-0.1171,-0.1174,-0.1121,-0.112,-0.1119,-0.1118,0,0,-0.0379,-0.0449,-0.0451,-0.0474,-0.055,-0.0572,-0.0629,-0.0682,-0.0718,-0.0847,-0.0916,-0.1063,-0.1134,-0.1176,-0.123,-0.1293,-0.134,-0.13,-0.13,-0.1243,-0.1354,-0.1236,-0.1227,-0.1372,-0.1375,-0.1376,-0.1262,0,-0.0367,-0.0398,-0.0446,-0.049,-0.0514,-0.0576,-0.0629,-0.069,-0.0761,-0.0836,-0.0958,-0.1065,-0.1147,-0.1227,-0.1301,-0.1352,-0.1362,-0.1367,-0.1312,-0.1309,-0.1198,-0.1233,-0.1384,-0.1264,-0.1265,-0.1265,-0.1266,0,-0.0351,-0.0374,-0.0414,-0.0479,-0.0495,-0.0546,-0.0615,-0.0669,-0.0767,-0.0836,-0.0969,-0.1059,-0.1212,-0.126,-0.138,-0.1391,-0.1377,-0.1399,-0.1394,-0.1279,-0.1201,-0.1212,-0.1271,-0.127,-0.127,-0.127,-0.1269,0,-0.0294,-0.0349,-0.0379,-0.0406,-0.0496,-0.0531,-0.0588,-0.0677,-0.0724,-0.0853,-0.0912,-0.1082,-0.117,-0.1269,-0.1323,-0.138,-0.1376,-0.1434,-0.128,-0.1267,-0.1381,-0.1372,-0.1448,-0.1448,-0.1449,-0.1449,-0.1449,0,-0.0269,-0.0287,-0.0362,-0.0381,-0.0434,-0.0509,-0.0577,-0.0642,-0.0741,-0.0774,-0.0933,-0.0979,-0.1189,-0.1207,-0.1284,-0.1271,-0.1327,-0.1294,-0.1252,-0.1395,-0.1391,-0.1378,-0.1371,-0.1444,-0.1445,-0.1446,-0.1447,0,-0.0229,-0.0271,-0.0307,-0.0385,-0.0421,-0.047,-0.0585,-0.0614,-0.0718,-0.076,-0.0819,-0.092,-0.0975,-0.1061,-0.114,-0.1167,-0.1194,-0.1123,-0.1185,-0.1146,-0.1079,-0.1077,-0.1042,-0.1037,-0.1033,-0.103,-0.1027,0,-0.0218,-0.0236,-0.0307,-0.0335,-0.0386,-0.0466,-0.0514,-0.0622,-0.0643,-0.0693,-0.0693,-0.0742,-0.0797,-0.0791,-0.0917,-0.0982,-0.0977,-0.0957,-0.1149,-0.1086,-0.1049,-0.1052,-0.1055,-0.1021,-0.102,-0.1019,-0.1018,0,-0.0207,-0.0236,-0.0268,-0.0313,-0.0367,-0.0405,-0.0468,-0.0492,-0.0562,-0.0624,-0.0578,-0.0621,-0.06,-0.0714,-0.0692,-0.0761,-0.1017,-0.0919,-0.0932,-0.1113,-0.106,-0.1028,-0.1035,-0.1004,-0.1006,-0.1008,-0.1008,0,-0.0208,-0.0225,-0.0263,-0.0306,-0.0333,-0.0333,-0.0386,-0.0394,-0.0439,-0.0489,-0.0436,-0.0479,-0.0517,-0.0581,-0.059,-0.0636,-0.0726,-0.0787,-0.0809,-0.0825,-0.0828,-0.0734,-0.0544,0,0,0,0,0,-0.0217,-0.0231,-0.0249,-0.0274,-0.027,-0.0282,-0.0335,-0.0378,-0.0425,-0.0367,-0.0414,-0.0393,-0.044,-0.0479,-0.0509,-0.0579,-0.0754,-0.0618,-0.084,-0.0929,-0.0945,-0.0981,0,0,0,0,0,0,-0.0225,-0.025,-0.0247,-0.0221,-0.0206,-0.0201,-0.0228,-0.0258,-0.0255,-0.0297,-0.0327,-0.036,-0.0424,-0.0384,-0.048,-0.0502,-0.0644,-0.0657,-0.0657,-0.0921,-0.0935,-0.0947,-0.0989,0,0,0,0,0]},{"header":{"parameterUnit":"m.s-1","parameterCategory":2,"la1":30.2991,"la2":30.254,"lo1":-89.0895,"lo2":-89.0444,"dy":0.0017,"dx":0.0017,"nx":28,"ny":28,"refTime":"2023-04-27T21:00:00:Z","depth":"4","parameterNumber":3,"parameterNumberName":"V-component_of_CURRENTS"},"data":[0,0,0,0,0,0,0,0,0,0,0,0,0,0,0,0,0,0,0,0,0,0,0,0,0,0,0,0,0,0,0,0,0,0,0,0,0,0,0,0,0,0,0,0,0,0,0,0,0,0,0,0,0,0,0,0,0,0,-0.0659,-0.0659,0,-0.0682,-0.0682,-0.0683,-0.0703,-0.0703,-0.0703,-0.0703,-0.0684,-0.0683,-0.0683,0,0,0,0,0,0,0,0,0,0,0,0,0,-0.0592,-0.0593,-0.0659,-0.0659,-0.0659,-0.0682,-0.0682,-0.0683,-0.0703,-0.0703,-0.0703,-0.0703,-0.0684,-0.0683,-0.0683,0,0,0,0,0,0,0,0,0,0,0,0,0,-0.0621,-0.0594,-0.0659,-0.067,-0.0671,-0.0682,-0.0682,-0.0683,-0.0703,-0.0703,-0.0703,-0.0703,-0.0684,-0.0684,-0.0683,-0.0678,0,0,-0.068,-0.068,0,0,0,0,0,0,0,0,-0.0619,-0.0624,-0.0668,-0.0669,-0.067,-0.0687,-0.0652,-0.0678,-0.0703,-0.0694,-0.0703,-0.0703,-0.0679,-0.0679,-0.0688,-0.0677,-0.0677,-0.068,-0.068,-0.068,-0.0679,0,0,0,0,0,0,0,-0.0617,-0.0623,-0.0671,-0.0668,-0.0669,-0.0659,-0.0664,-0.0657,-0.0687,-0.0694,-0.0695,-0.0694,-0.068,-0.0689,-0.0687,-0.0676,-0.068,-0.068,-0.0679,-0.0679,-0.0696,-0.0697,0,0,0,0,0,0,-0.0612,-0.0621,-0.067,-0.0671,-0.0641,-0.0661,-0.0666,-0.0684,-0.0689,-0.0689,-0.0694,-0.0695,-0.069,-0.0688,-0.0687,-0.0728,-0.068,-0.0679,-0.0678,-0.0695,-0.0696,-0.0697,0,0,0,0,0,0,-0.0611,-0.0617,-0.0669,-0.0643,-0.0649,-0.0662,-0.0682,-0.0684,-0.0722,-0.0688,-0.0688,-0.0731,-0.069,-0.0688,-0.0701,-0.0725,-0.0679,-0.0678,-0.0694,-0.0696,-0.0697,-0.0779,0,0,0,0,0,0,-0.0609,-0.0617,-0.0638,-0.0643,-0.065,-0.069,-0.0681,-0.0685,-0.0717,-0.072,-0.0719,-0.0716,-0.069,-0.0702,-0.07,-0.0723,-0.0677,-0.0693,-0.0695,-0.0696,-0.0775,-0.0783,-0.079,0,0,0,0,0,-0.0607,-0.0632,-0.064,-0.0646,-0.0677,-0.0691,-0.0694,-0.0704,-0.0719,-0.0738,-0.0739,-0.0717,-0.0711,-0.0703,-0.07,-0.0723,-0.0692,-0.0694,-0.0696,-0.0772,-0.0782,-0.079,0,0,0,0,0,0,-0.0611,-0.0636,-0.0645,-0.0677,-0.069,-0.0694,-0.0708,-0.0726,-0.0746,-0.0753,-0.0733,-0.0729,-0.0749,-0.0726,-0.0717,-0.0732,-0.0697,-0.0698,-0.0755,-0.0764,-0.0771,-0.0772,-0.0677,0,0,0,0,0,-0.0622,-0.0653,-0.0666,-0.0692,-0.0699,-0.0714,-0.0727,-0.0739,-0.0749,-0.076,-0.0764,-0.0759,-0.0752,-0.0751,-0.0741,-0.0754,-0.0721,-0.0764,-0.0772,-0.0778,-0.0777,-0.0758,-0.0764,-0.0704,-0.0704,-0.0704,0,0,-0.0629,-0.0648,-0.0665,-0.0696,-0.0705,-0.0727,-0.0724,-0.0751,-0.0772,-0.0752,-0.0792,-0.079,-0.0762,-0.0774,-0.078,-0.076,-0.0778,-0.0781,-0.0787,-0.0781,-0.0761,-0.0767,-0.0772,-0.0706,-0.0705,-0.0705,0,0,-0.0645,-0.0676,-0.0701,-0.072,-0.0743,-0.0752,-0.077,-0.0797,-0.0811,-0.0845,-0.0833,-0.0854,-0.0849,-0.0838,-0.0827,-0.087,-0.0821,-0.0864,-0.0901,-0.0884,-0.0888,-0.0892,-0.0858,-0.0858,-0.0865,-0.0865,-0.0865,0,-0.0649,-0.0688,-0.0708,-0.0734,-0.0752,-0.0771,-0.0797,-0.0813,-0.0847,-0.0856,-0.0865,-0.0892,-0.0879,-0.0886,-0.0897,-0.0889,-0.0858,-0.0872,-0.0894,-0.0897,-0.0899,-0.0863,-0.0862,-0.0869,-0.0869,-0.0868,-0.0868,0,-0.0679,-0.0715,-0.0728,-0.0772,-0.0797,-0.0823,-0.0843,-0.0871,-0.09,-0.0917,-0.0953,-0.0956,-0.0969,-0.0971,-0.0945,-0.0959,-0.0924,-0.0909,-0.0873,-0.091,-0.0869,-0.0867,-0.0875,-0.0874,-0.0872,-0.0871,0,0,-0.0671,-0.0736,-0.0743,-0.0764,-0.0823,-0.0837,-0.0875,-0.0901,-0.092,-0.0971,-0.1007,-0.102,-0.1042,-0.1031,-0.1022,-0.1008,-0.1004,-0.0966,-0.0963,-0.0934,-0.0947,-0.0852,-0.084,-0.0989,-0.0989,-0.0989,-0.0912,0,-0.0683,-0.0726,-0.077,-0.0817,-0.0836,-0.0875,-0.0905,-0.0937,-0.0962,-0.1001,-0.1027,-0.1065,-0.1057,-0.108,-0.1069,-0.1014,-0.1,-0.1025,-0.0913,-0.0909,-0.0822,-0.0835,-0.0989,-0.091,-0.0909,-0.0909,-0.0908,0,-0.0701,-0.0721,-0.0774,-0.0824,-0.0838,-0.0887,-0.0928,-0.0955,-0.1001,-0.1029,-0.1082,-0.1105,-0.1124,-0.1118,-0.1058,-0.1069,-0.1018,-0.0977,-0.0972,-0.0851,-0.0809,-0.0863,-0.0903,-0.0903,-0.0903,-0.0904,-0.0904,0,-0.067,-0.0726,-0.0766,-0.0791,-0.0856,-0.0893,-0.0928,-0.0973,-0.0989,-0.1064,-0.1092,-0.1129,-0.1144,-0.1107,-0.1033,-0.1045,-0.0942,-0.0948,-0.0819,-0.0811,-0.0884,-0.0881,-0.0911,-0.0911,-0.0911,-0.0911,-0.0912,0,-0.067,-0.0699,-0.0762,-0.0786,-0.0834,-0.0884,-0.0931,-0.0974,-0.1026,-0.1035,-0.1116,-0.1123,-0.1137,-0.1088,-0.1033,-0.0899,-0.0943,-0.0818,-0.0785,-0.092,-0.0922,-0.0882,-0.0879,-0.0908,-0.0909,-0.091,-0.091,0,-0.0655,-0.0696,-0.0739,-0.0804,-0.0835,-0.0873,-0.0946,-0.0952,-0.1016,-0.1034,-0.107,-0.1109,-0.1044,-0.102,-0.0936,-0.087,-0.0777,-0.0722,-0.0852,-0.0829,-0.0661,-0.0664,-0.0581,-0.0577,-0.0574,-0.0571,-0.0568,0,-0.0654,-0.0676,-0.0754,-0.0774,-0.0824,-0.0874,-0.0897,-0.0964,-0.0957,-0.0991,-0.0983,-0.0977,-0.0979,-0.0811,-0.078,-0.0679,-0.0662,-0.0614,-0.0663,-0.0651,-0.0628,-0.0636,-0.0644,-0.0563,-0.0562,-0.0561,-0.056,0,-0.0639,-0.0683,-0.0709,-0.0753,-0.0797,-0.0826,-0.0856,-0.0861,-0.0893,-0.0937,-0.0907,-0.0883,-0.0797,-0.0747,-0.067,-0.0596,-0.0651,-0.0578,-0.0586,-0.0632,-0.0628,-0.061,-0.0622,-0.0549,-0.055,-0.0551,-0.0552,0,-0.0627,-0.0638,-0.0675,-0.0716,-0.0753,-0.0773,-0.0803,-0.0788,-0.0809,-0.0841,-0.0806,-0.0795,-0.0797,-0.0696,-0.0611,-0.0545,-0.0534,-0.0514,-0.0526,-0.0538,-0.055,-0.0542,-0.0399,0,0,0,0,0,-0.061,-0.0608,-0.0624,-0.0664,-0.0694,-0.0731,-0.0757,-0.0771,-0.079,-0.0755,-0.0791,-0.0722,-0.0637,-0.062,-0.0535,-0.0536,-0.0513,-0.0428,-0.0494,-0.0483,-0.0497,-0.051,0,0,0,0,0,0,-0.0587,-0.0602,-0.0603,-0.0611,-0.0629,-0.0664,-0.0692,-0.0711,-0.0693,-0.0715,-0.0685,-0.067,-0.0604,-0.0691,-0.0529,-0.0509,-0.0528,-0.0401,-0.0398,-0.0476,-0.0488,-0.0499,-0.0517,0,0,0,0,0]}]]